This is the latest recevied weather packets stored in our database for station/object CE2KVL-1. If no packets are shown the sender has not sent any weather packets the latest 10 day(s).
| Time | Temp. | Humidity | Pressure | Rain* | Wind** | Luminosity | Snow |
|---|---|---|---|---|---|---|---|
| 1778268786 | 16.11° C | 38% | 1022.7 hPa | - | - | - | - |
| 1778268486 | 16.11° C | 40% | 1022.3 hPa | - | - | - | - |
| 1778268186 | 16.11° C | 39% | 1022.3 hPa | - | - | - | - |
| 1778267886 | 16.11° C | 41% | 1022.6 hPa | - | - | - | - |
| 1778267586 | 16.11° C | 40% | 1022 hPa | - | - | - | - |
| 1778267286 | 16.11° C | 38% | 1022.7 hPa | - | - | - | - |
| 1778266986 | 16.11° C | 38% | 1022.8 hPa | - | - | - | - |
| 1778266686 | 16.11° C | 40% | 1022.4 hPa | - | - | - | - |
| 1778266386 | 16.11° C | 41% | 1022.7 hPa | - | - | - | - |
| 1778266086 | 16.11° C | 41% | 1022.9 hPa | - | - | - | - |
| 1778265786 | 16.11° C | 41% | 1022.7 hPa | - | - | - | - |
| 1778265486 | 15.56° C | 40% | 1023.3 hPa | - | - | - | - |
| 1778265186 | 16.11° C | 44% | 1023.1 hPa | - | - | - | - |
| 1778264886 | 16.11° C | 45% | 1023.2 hPa | - | - | - | - |
| 1778264586 | 16.11° C | 48% | 1022.8 hPa | - | - | - | - |
| 1778264286 | 15.56° C | 51% | 1023.1 hPa | - | - | - | - |
| 1778263986 | 15.56° C | 52% | 1023.1 hPa | - | - | - | - |
| 1778263686 | 15.56° C | 52% | 1023 hPa | - | - | - | - |
| 1778263386 | 15.56° C | 54% | 1022.6 hPa | - | - | - | - |
| 1778263086 | 15.56° C | 55% | 1023.6 hPa | - | - | - | - |
| 1778262786 | 15.56° C | 55% | 1023.1 hPa | - | - | - | - |
| 1778262486 | 15.56° C | 55% | 1023.7 hPa | - | - | - | - |
| 1778262186 | 15.56° C | 56% | 1023 hPa | - | - | - | - |
| 1778261886 | 15° C | 53% | 1023.2 hPa | - | - | - | - |
| 1778261586 | 15° C | 55% | 1024.1 hPa | - | - | - | - |
* Rain since midnight (hover to see other rain measurements)
** Current wind speed in m/s (hover to see current wind gust speed)